{"data":{"norad_id":68579,"intl_designator":"2026-072G","name":"KUIPER-00230","alt_names":[],"object_type":"PAYLOAD","status":"ACTIVE","operator":null,"country":"US","launch_date":"2026-04-04","launch_site_code":"AFETR","launch_vehicle":null,"mission":null,"orbit_class":"UNKNOWN","rcs_meters":null,"size_class":null,"mass_kg":null,"dimensions":null,"purposes":[],"wikipedia_slug":null,"has_3d_model":false,"image_url":null,"decayed_at":null,"tle_current":{"epoch":"2026-09-20T04:00:03.000096Z","epoch_age_seconds":95275,"freshness":"FRESH","line1":"1 68579U 26072G   26263.16670139 -.00084439  00000+0 -10602-1 0  9993","line2":"2 68579  51.9026  82.8762 0001223  52.8425 298.5983 14.82171163  1376","mean_motion":14.82171163,"eccentricity":0.0001223,"inclination_deg":51.9026,"raan_deg":82.8762,"arg_perigee_deg":52.8425,"mean_anomaly_deg":298.5983,"bstar":-0.010602,"rev_number":137,"period_min":97.15477105123,"perigee_km":621.62302020483,"apogee_km":623.33537092626,"semimajor_km":7000.6161955655,"source":"CELESTRAK","updated_at":"2026-09-20T09:00:24.319597Z"}}}